Regional Weather Roundup
Issued by NWS

Home | Current Version | Previous Version | Text Only | Print | Product List | Glossary On
Versions: 1 2 3 4 5 6 7 8 9 10 11 12 13 14 15 16 17 18 19 20 21 22 23 24 25 26 27 28 29 30 31 32 33 34 35 36 37 38 39 40 41 42 43 44 45 46 47 48 49 50
000
ASUS46 KSEW 290010
RWRWA

WASHINGTON REGIONAL WEATHER ROUNDUP
NATIONAL WEATHER SERVICE SEATTLE WA
500 PM PDT SUN MAY 28 2017

NOTE:"FAIR" INDICATES FEW OR NO CLOUDS BELOW 12,000 FEET WITH NO
SIGNIFICANT WEATHER AND/OR OBSTRUCTIONS TO VISIBILITY.

WAZ507-509-555>559-290100-
SEATTLE, TACOMA, EVERETT, AND VICINITY

CITY           SKY/WX    TMP DP  RH WIND       PRES   REMARKS
EVERETT        SUNNY     77  54  44 N7        30.06F
6HR MIN TEMP:  69; 6HR MAX TEMP:  79;

BOEING FIELD   SUNNY     82  52  35 NW12      30.02F
6HR MIN TEMP:  71; 6HR MAX TEMP:  82;

RENTON         SUNNY     84  52  33 NW13      30.01F
6HR MIN TEMP:  71; 6HR MAX TEMP:  84;

SEATAC AIRPORT MOSUNNY   86  48  26 N12       30.03F
6HR MIN TEMP:  69; 6HR MAX TEMP:  86;

JBLM-MCCHORD   SUNNY     85  53  32 NE5       30.02F
6HR MIN TEMP:  69; 6HR MAX TEMP:  85;

PUYALLUP         N/A     86  52  30 VRB6G12   30.03F
BREMERTON      SUNNY     84  52  33 NE12      30.03F
6HR MIN TEMP:  74; 6HR MAX TEMP:  84;

JBLM-FT LEWIS  SUNNY     86  45  24 NE10      30.04F
6HR MIN TEMP:  53; 6HR MAX TEMP:  74;

TACOMA NARROWS SUNNY     80  50  34 VRB6      30.03F
6HR MIN TEMP:  65; 6HR MAX TEMP:  81;

$$

WAZ001-503-506-510-514-515-290100-
NORTH INTERIOR

CITY           SKY/WX    TMP DP  RH WIND       PRES   REMARKS
BELLINGHAM     SUNNY     82  48  30 NW5       30.05F
6HR MIN TEMP:  70; 6HR MAX TEMP:  83;

FRIDAY HARBOR  SUNNY     74  54  49 SE3       30.07F
6HR MIN TEMP:  62; 6HR MAX TEMP:  74;

EASTSOUND      SUNNY     73  52  46 N3        30.05F
PORT ANGELES   SUNNY     59  51  75 NW7       30.09F
6HR MIN TEMP:  59; 6HR MAX TEMP:  65;

EDIZ HOOK      CLOUDY    53  48  84 W16       30.08F HAZE
6HR MIN TEMP:  52; 6HR MAX TEMP:  54;

PORT TOWNSEND  FAIR      77  50  38 VRB6G12   30.06F
NAS WHIDBEY    MOSUNNY   58  49  72 W6        30.11F
6HR MIN TEMP:  54; 6HR MAX TEMP:  60;

ARLINGTON      SUNNY     81  57  44 NW13      30.05F
6HR MIN TEMP:  73; 6HR MAX TEMP:  81;

BURLINGTON     SUNNY     77  54  44 W9        30.04F
$$

WAZ020-022-039-040-504-511-512-290100-
SOUTHWEST INTERIOR

CITY           SKY/WX    TMP DP  RH WIND       PRES   REMARKS
SHELTON        SUNNY     85  59  41 SW13      30.00S
6HR MIN TEMP:  69; 6HR MAX TEMP:  90;

OLYMPIA        SUNNY     86  53  32 N9        30.01F
6HR MIN TEMP:  69; 6HR MAX TEMP:  87;

CHEHALIS       FAIR      86  61  42 VRB6G13   30.01F
KELSO          SUNNY     73  58  59 NW10      30.04S
6HR MIN TEMP:  61; 6HR MAX TEMP:  74;

VANCOUVER      SUNNY     84  58  40 NW7       29.99F
6HR MIN TEMP:  67; 6HR MAX TEMP:  84;

SCAPPOOSE, OR  SUNNY     82  62  50 CALM      29.98F
6HR MIN TEMP:  66; 6HR MAX TEMP:  82;

PORTLAND, OR   MOSUNNY   85  53  33 W7        29.99F
6HR MIN TEMP:  66; 6HR MAX TEMP:  85;

$$

WAZ021-516-517-290100-
WASHINGTON COAST

CITY           SKY/WX    TMP DP  RH WIND       PRES   REMARKS
FORKS          SUNNY     60  52  74 W12       30.10S
6HR MIN TEMP:  58; 6HR MAX TEMP:  65;

HOQUIAM        CLOUDY    55  52  89 SW14      30.12F
6HR MIN TEMP:  55; 6HR MAX TEMP:  59;

ASTORIA, OR    CLOUDY    56  49  77 W10       30.13S
6HR MIN TEMP:  54; 6HR MAX TEMP:  58;

$$

WAZ019-023-024-040-567>569-290100-
CASCADE MOUNTAINS AND COLUMBIA GORGE

CITY           SKY/WX    TMP DP  RH WIND       PRES   REMARKS
STAMPEDE PASS  PTSUNNY   73  41  31 E3        30.18F
6HR MIN TEMP:  70; 6HR MAX TEMP:  78;

TROUTDALE, OR  SUNNY     84  57  39 W5        29.98F
6HR MIN TEMP:  69; 6HR MAX TEMP:  85;

THE DALLES, OR SUNNY     96  41  15 NE8       29.94F HX  92
6HR MIN TEMP:  78; 6HR MAX TEMP:  97;

$$

WAZ026-027-041>044-520-521-290100-
EAST SLOPES

CITY           SKY/WX    TMP DP  RH WIND       PRES   REMARKS
OMAK           SUNNY     85  46  25 SW8       30.06F
6HR MIN TEMP:  75; 6HR MAX TEMP:  86;

WENATCHEE      SUNNY     87  40  19 CALM      30.03F
6HR MIN TEMP:  74; 6HR MAX TEMP:  88;

ELLENSBURG     SUNNY     89  43  20 E6        30.05F
6HR MIN TEMP:  76; 6HR MAX TEMP:  90;

YAKIMA         MOSUNNY   92  40  16 S6        30.02F
6HR MIN TEMP:  81; 6HR MAX TEMP:  93;

SUNNYSIDE ARPT CLEAR     87  43  21 CALM      30.01F
6HR MIN TEMP:  75; 6HR MAX TEMP:  87;

$$

WAZ028-034-035-290100-
COLUMBIA BASIN

CITY           SKY/WX    TMP DP  RH WIND       PRES   REMARKS
EPHRATA        SUNNY     89  39  17 VRB3      30.04F
6HR MIN TEMP:  81; 6HR MAX TEMP:  91;

MOSES LAKE     SUNNY     88  41  19 SE5       30.04F
6HR MIN TEMP:  80; 6HR MAX TEMP:  91;

PASCO          SUNNY     92  47  21 VRB5      30.00F
6HR MIN TEMP:  76; 6HR MAX TEMP:  92;

HERMISTON, OR  SUNNY     92  39  15 MISG      29.99F
6HR MIN TEMP:  79; 6HR MAX TEMP:  93;

$$

WAZ036>038-290100-
NORTHEAST WASHINGTON

CITY           SKY/WX    TMP DP  RH WIND       PRES   REMARKS
SPOKANE GEIGER MOSUNNY   83  37  19 SE6       30.10F
6HR MIN TEMP:  76; 6HR MAX TEMP:  85;

SPOKANE FELTS  SUNNY     86  44  23 N3        30.08F
6HR MIN TEMP:  77; 6HR MAX TEMP:  87;

FAIRCHILD AFB  SUNNY     81  44  26 SE5       30.11F
6HR MIN TEMP:  74; 6HR MAX TEMP:  82;

COEURDALENE,ID SUNNY     83  45  26 W3        30.10F
6HR MIN TEMP:  75; 6HR MAX TEMP:  84;

DEER PARK      SUNNY     83  42  23 W7        30.10F
6HR MIN TEMP:  74; 6HR MAX TEMP:  84;

$$

WAZ029>033-290100-
SOUTHEAST WASHINGTON

CITY           SKY/WX    TMP DP  RH WIND       PRES   REMARKS
PULLMAN        SUNNY     81  41  24 N3        30.12F
6HR MIN TEMP:  75; 6HR MAX TEMP:  82;

LEWISTON, ID   SUNNY     89  40  17 E8        30.04F
6HR MIN TEMP:  75; 6HR MAX TEMP:  89;

WALLA WALLA    SUNNY     88  42  20 W7        30.03F
6HR MIN TEMP:  78; 6HR MAX TEMP:  89;

PENDLETON, OR  SUNNY     85  45  24 N8        30.03F
6HR MIN TEMP:  78; 6HR MAX TEMP:  87;

$$



USA.gov is the U.S. government's official web portal to all federal, state and local government web resources and services.